owner,sensor,date,latitude,longitude,vertical_datum,direction_of_sea_water_velocity,sea_water_speed,upward_sea_water_velocity,qcFlag 
TABS,ioos:station:wmo:42046:1,2013-09-01T00:00:00Z,27.8903,-94.0367,2.0,263.2595387,17.7224829,-99999.0,'11111222,11111222,99999999' 
TABS,ioos:station:wmo:42046:1,2013-09-01T00:30:00Z,27.8903,-94.0367,2.0,267.6663556,17.19425485,-99999.0,'11111222,11111222,99999999' 
TABS,ioos:station:wmo:42046:1,2013-09-01T01:00:00Z,27.8903,-94.0367,2.0,275.7147851,15.06486309,-99999.0,'11111222,11111222,99999999' 
TABS,ioos:station:wmo:42046:1,2013-09-01T01:30:00Z,27.8903,-94.0367,2.0,280.4804588,14.62395295,-99999.0,'11111222,11111222,99999999' 
TABS,ioos:station:wmo:42046:1,2013-09-01T02:00:00Z,27.8903,-94.0367,2.0,282.5089589,12.28151864,-99999.0,'11111222,11111222,99999999' 
TABS,ioos:station:wmo:42046:1,2013-09-01T02:30:00Z,27.8903,-94.0367,2.0,297.9798299,15.581197,-99999.0,'11111222,11111222,99999999' 
TABS,ioos:station:wmo:42046:1,2013-09-01T03:00:00Z,27.8903,-94.0367,2.0,304.2016958,10.56745949,-99999.0,'11111222,11111222,99999999' 
TABS,ioos:station:wmo:42046:1,2013-09-01T03:30:00Z,27.8903,-94.0367,2.0,304.7491409,10.80740487,-99999.0,'11111222,11111222,99999999' 
TABS,ioos:station:wmo:42046:1,2013-09-01T04:00:00Z,27.8903,-94.0367,2.0,325.7084246,12.9390958,-99999.0,'11111222,11111222,99999999' 
TABS,ioos:station:wmo:42046:1,2013-09-01T04:30:00Z,27.8903,-94.0367,2.0,339.803377,12.136235,-99999.0,'11111222,11111222,99999999' 
TABS,ioos:station:wmo:42046:1,2013-09-01T05:00:00Z,27.8903,-94.0367,2.0,341.1037848,8.244325321,-99999.0,'11133222,11111222,99999999' 
TABS,ioos:station:wmo:42046:1,2013-09-01T05:30:00Z,27.8903,-94.0367,2.0,353.1678648,8.742082132,-99999.0,'11133222,11111222,99999999' 
TABS,ioos:station:wmo:42046:1,2013-09-01T06:00:00Z,27.8903,-94.0367,2.0,9.674392535,7.557473123,-99999.0,'11133222,11111222,99999999' 
TABS,ioos:station:wmo:42046:1,2013-09-01T06:30:00Z,27.8903,-94.0367,2.0,28.95900321,8.137444316,-99999.0,'11133222,11111222,99999999' 
TABS,ioos:station:wmo:42046:1,2013-09-01T07:00:00Z,27.8903,-94.0367,2.0,24.84708737,10.59030689,-99999.0,'11111222,11111222,99999999' 
TABS,ioos:station:wmo:42046:1,2013-09-01T07:30:00Z,27.8903,-94.0367,2.0,29.88051443,12.06365202,-99999.0,'11111222,11111222,99999999' 
TABS,ioos:station:wmo:42046:1,2013-09-01T08:00:00Z,27.8903,-94.0367,2.0,28.37938718,6.921863911,-99999.0,'11133222,11111222,99999999' 
TABS,ioos:station:wmo:42046:1,2013-09-01T08:30:00Z,27.8903,-94.0367,2.0,45.79874555,9.638801793,-99999.0,'11133222,11111222,99999999' 
TABS,ioos:station:wmo:42046:1,2013-09-01T09:00:00Z,27.8903,-94.0367,2.0,56.1854557,10.20650773,-99999.0,'11111222,11111222,99999999' 
TABS,ioos:station:wmo:42046:1,2013-09-01T09:30:00Z,27.8903,-94.0367,2.0,46.68620168,8.411141421,-99999.0,'11133222,11111222,99999999' 
TABS,ioos:station:wmo:42046:1,2013-09-01T10:00:00Z,27.8903,-94.0367,2.0,70.94681995,8.79164376,-99999.0,'11133222,11111222,99999999' 
TABS,ioos:station:wmo:42046:1,2013-09-01T10:30:00Z,27.8903,-94.0367,2.0,57.93514162,7.139089578,-99999.0,'11133222,11111222,99999999' 
TABS,ioos:station:wmo:42046:1,2013-09-01T11:00:00Z,27.8903,-94.0367,2.0,69.02655562,8.35344839,-99999.0,'11133222,11111222,99999999' 
TABS,ioos:station:wmo:42046:1,2013-09-01T11:30:00Z,27.8903,-94.0367,2.0,64.40661863,7.384558213,-99999.0,'11133222,11111222,99999999' 
TABS,ioos:station:wmo:42046:1,2013-09-01T12:00:00Z,27.8903,-94.0367,2.0,69.14292866,9.577609305,-99999.0,'11133222,11111222,99999999' 
TABS,ioos:station:wmo:42046:1,2013-09-01T12:30:00Z,27.8903,-94.0367,2.0,66.10323121,7.973518671,-99999.0,'11133222,11111222,99999999' 
TABS,ioos:station:wmo:42046:1,2013-09-01T13:00:00Z,27.8903,-94.0367,2.0,97.50630188,8.573470709,-99999.0,'11133222,11111222,99999999' 
TABS,ioos:station:wmo:42046:1,2013-09-01T13:30:00Z,27.8903,-94.0367,2.0,97.12499969,11.69027374,-99999.0,'11111222,11111222,99999999' 
TABS,ioos:station:wmo:42046:1,2013-09-01T14:00:00Z,27.8903,-94.0367,2.0,95.19982048,9.599505196,-99999.0,'11133222,11111222,99999999' 
TABS,ioos:station:wmo:42046:1,2013-09-01T14:30:00Z,27.8903,-94.0367,2.0,91.27420648,10.79266881,-99999.0,'11111222,11111222,99999999' 
TABS,ioos:station:wmo:42046:1,2013-09-01T15:00:00Z,27.8903,-94.0367,2.0,90.05395069,10.62000471,-99999.0,'11111222,11111222,99999999' 
TABS,ioos:station:wmo:42046:1,2013-09-01T15:30:00Z,27.8903,-94.0367,2.0,89.26692643,10.16083166,-99999.0,'11111222,11111222,99999999' 
TABS,ioos:station:wmo:42046:1,2013-09-01T16:00:00Z,27.8903,-94.0367,2.0,92.15679489,10.09715306,-99999.0,'11111222,11111222,99999999' 
TABS,ioos:station:wmo:42046:1,2013-09-01T16:30:00Z,27.8903,-94.0367,2.0,119.1026793,10.40344654,-99999.0,'11111222,11111222,99999999' 
TABS,ioos:station:wmo:42046:1,2013-09-01T17:00:00Z,27.8903,-94.0367,2.0,89.75196845,11.55010822,-99999.0,'11111222,11111222,99999999' 
TABS,ioos:station:wmo:42046:1,2013-09-01T17:30:00Z,27.8903,-94.0367,2.0,111.9570293,12.30236156,-99999.0,'11111222,11111222,99999999' 
TABS,ioos:station:wmo:42046:1,2013-09-01T18:00:00Z,27.8903,-94.0367,2.0,104.8930006,13.46223236,-99999.0,'11111222,11111222,99999999' 
TABS,ioos:station:wmo:42046:1,2013-09-01T18:30:00Z,27.8903,-94.0367,2.0,108.3022771,13.66107609,-99999.0,'11111222,11111222,99999999' 
TABS,ioos:station:wmo:42046:1,2013-09-01T19:00:00Z,27.8903,-94.0367,2.0,114.6342035,14.202623,-99999.0,'11111222,11111222,99999999' 
TABS,ioos:station:wmo:42046:1,2013-09-01T19:30:00Z,27.8903,-94.0367,2.0,130.6189603,17.49544226,-99999.0,'11111222,11111222,99999999' 
TABS,ioos:station:wmo:42046:1,2013-09-01T20:00:00Z,27.8903,-94.0367,2.0,119.866847,13.9762656,-99999.0,'11111222,11111222,99999999' 
TABS,ioos:station:wmo:42046:1,2013-09-01T20:30:00Z,27.8903,-94.0367,2.0,125.9084187,13.11184579,-99999.0,'11111222,11111222,99999999' 
TABS,ioos:station:wmo:42046:1,2013-09-01T21:00:00Z,27.8903,-94.0367,2.0,125.5526053,13.31151757,-99999.0,'11111222,11111222,99999999' 
TABS,ioos:station:wmo:42046:1,2013-09-01T21:30:00Z,27.8903,-94.0367,2.0,137.9754558,11.4422725,-99999.0,'11111222,11111222,99999999' 
TABS,ioos:station:wmo:42046:1,2013-09-01T22:00:00Z,27.8903,-94.0367,2.0,148.3154843,15.13594728,-99999.0,'11111222,11111222,99999999' 
TABS,ioos:station:wmo:42046:1,2013-09-01T22:30:00Z,27.8903,-94.0367,2.0,153.8147155,14.16356594,-99999.0,'11111222,11111222,99999999' 
TABS,ioos:station:wmo:42046:1,2013-09-01T23:00:00Z,27.8903,-94.0367,2.0,185.5543337,14.98034045,-99999.0,'11111222,11111222,99999999' 
TABS,ioos:station:wmo:42046:1,2013-09-01T23:30:00Z,27.8903,-94.0367,2.0,184.6556372,15.8924416,-99999.0,'11111222,11111222,99999999' 
TABS,ioos:station:wmo:42046:1,2013-09-02T00:00:00Z,27.8903,-94.0367,2.0,186.2237932,11.43741667,-99999.0,'11111222,11111222,99999999' 
TABS,ioos:station:wmo:42046:1,2013-09-02T00:30:00Z,27.8903,-94.0367,2.0,206.7322276,9.181334326,-99999.0,'11133222,11111222,99999999' 
TABS,ioos:station:wmo:42046:1,2013-09-02T01:00:00Z,27.8903,-94.0367,2.0,241.3641418,7.303293777,-99999.0,'11133222,11111222,99999999' 
TABS,ioos:station:wmo:42046:1,2013-09-02T01:30:00Z,27.8903,-94.0367,2.0,228.5514094,9.245501609,-99999.0,'11133222,11111222,99999999' 
TABS,ioos:station:wmo:42046:1,2013-09-02T02:00:00Z,27.8903,-94.0367,2.0,251.322921,9.7430642,-99999.0,'11133222,11111222,99999999' 
TABS,ioos:station:wmo:42046:1,2013-09-02T02:30:00Z,27.8903,-94.0367,2.0,257.4034117,8.299765057,-99999.0,'11133222,11111222,99999999' 
TABS,ioos:station:wmo:42046:1,2013-09-02T03:00:00Z,27.8903,-94.0367,2.0,249.0339163,9.166896967,-99999.0,'11133222,11111222,99999999' 
TABS,ioos:station:wmo:42046:1,2013-09-02T03:30:00Z,27.8903,-94.0367,2.0,289.2819987,9.630186914,-99999.0,'11133222,11111222,99999999' 
TABS,ioos:station:wmo:42046:1,2013-09-02T04:00:00Z,27.8903,-94.0367,2.0,290.5823242,7.76568091,-99999.0,'11133222,11111222,99999999' 
TABS,ioos:station:wmo:42046:1,2013-09-02T04:30:00Z,27.8903,-94.0367,2.0,288.1774335,8.430717644,-99999.0,'11133222,11111222,99999999' 
TABS,ioos:station:wmo:42046:1,2013-09-02T05:00:00Z,27.8903,-94.0367,2.0,331.3082058,11.20594931,-99999.0,'11111222,11111222,99999999' 
TABS,ioos:station:wmo:42046:1,2013-09-02T05:30:00Z,27.8903,-94.0367,2.0,337.6540787,9.179335488,-99999.0,'11133222,11111222,99999999' 
TABS,ioos:station:wmo:42046:1,2013-09-02T06:00:00Z,27.8903,-94.0367,2.0,357.7669715,10.7781863,-99999.0,'11111222,11111222,99999999' 
TABS,ioos:station:wmo:42046:1,2013-09-02T06:30:00Z,27.8903,-94.0367,2.0,9.06156785,9.397276201,-99999.0,'11133222,11111222,99999999' 
TABS,ioos:station:wmo:42046:1,2013-09-02T07:00:00Z,27.8903,-94.0367,2.0,354.5101314,9.825069974,-99999.0,'11133222,11111222,99999999' 
TABS,ioos:station:wmo:42046:1,2013-09-02T07:30:00Z,27.8903,-94.0367,2.0,59.62581421,7.000942794,-99999.0,'11133222,11111222,99999999' 
TABS,ioos:station:wmo:42046:1,2013-09-02T08:00:00Z,27.8903,-94.0367,2.0,42.13054474,11.29959291,-99999.0,'11111222,11111222,99999999' 
TABS,ioos:station:wmo:42046:1,2013-09-02T08:30:00Z,27.8903,-94.0367,2.0,41.57843016,9.477985018,-99999.0,'11133222,11111222,99999999' 
TABS,ioos:station:wmo:42046:1,2013-09-02T09:00:00Z,27.8903,-94.0367,2.0,40.56792911,12.99305199,-99999.0,'11111222,11111222,99999999' 
TABS,ioos:station:wmo:42046:1,2013-09-02T09:30:00Z,27.8903,-94.0367,2.0,51.30971632,11.70991033,-99999.0,'11111222,11111222,99999999' 
TABS,ioos:station:wmo:42046:1,2013-09-02T10:00:00Z,27.8903,-94.0367,2.0,57.13293148,9.655552807,-99999.0,'11133222,11111222,99999999' 
TABS,ioos:station:wmo:42046:1,2013-09-02T10:30:00Z,27.8903,-94.0367,2.0,45.43691236,11.13018419,-99999.0,'11111222,11111222,99999999' 
TABS,ioos:station:wmo:42046:1,2013-09-02T11:00:00Z,27.8903,-94.0367,2.0,54.87165296,12.0435626,-99999.0,'11111222,11111222,99999999' 
TABS,ioos:station:wmo:42046:1,2013-09-02T11:30:00Z,27.8903,-94.0367,2.0,67.38937215,9.597692431,-99999.0,'11133222,11111222,99999999' 
TABS,ioos:station:wmo:42046:1,2013-09-02T12:00:00Z,27.8903,-94.0367,2.0,72.26893659,12.87144126,-99999.0,'11111222,11111222,99999999' 
TABS,ioos:station:wmo:42046:1,2013-09-02T12:30:00Z,27.8903,-94.0367,2.0,80.93716508,13.20484759,-99999.0,'11111222,11111222,99999999' 
TABS,ioos:station:wmo:42046:1,2013-09-02T13:00:00Z,27.8903,-94.0367,2.0,76.38739112,14.10625748,-99999.0,'11111222,11111222,99999999' 
TABS,ioos:station:wmo:42046:1,2013-09-02T13:30:00Z,27.8903,-94.0367,2.0,86.41822815,13.12563903,-99999.0,'11111222,11111222,99999999' 
TABS,ioos:station:wmo:42046:1,2013-09-02T14:00:00Z,27.8903,-94.0367,2.0,97.73006965,13.97701327,-99999.0,'11111222,11111222,99999999' 
TABS,ioos:station:wmo:42046:1,2013-09-02T14:30:00Z,27.8903,-94.0367,2.0,84.58299055,13.98244614,-99999.0,'11111222,11111222,99999999' 
TABS,ioos:station:wmo:42046:1,2013-09-02T15:00:00Z,27.8903,-94.0367,2.0,99.81046853,11.09220447,-99999.0,'11111222,11111222,99999999' 
TABS,ioos:station:wmo:42046:1,2013-09-02T15:30:00Z,27.8903,-94.0367,2.0,99.16908744,13.49240157,-99999.0,'11111222,11111222,99999999' 
TABS,ioos:station:wmo:42046:1,2013-09-02T16:00:00Z,27.8903,-94.0367,2.0,98.90438816,12.66261032,-99999.0,'11111222,11111222,99999999' 
TABS,ioos:station:wmo:42046:1,2013-09-02T16:30:00Z,27.8903,-94.0367,2.0,85.05167782,13.91185106,-99999.0,'11111222,11111222,99999999' 
TABS,ioos:station:wmo:42046:1,2013-09-02T17:00:00Z,27.8903,-94.0367,2.0,98.88802546,11.97377969,-99999.0,'11111222,11111222,99999999' 
TABS,ioos:station:wmo:42046:1,2013-09-02T17:30:00Z,27.8903,-94.0367,2.0,93.39597902,13.67401185,-99999.0,'11111222,11111222,99999999' 
TABS,ioos:station:wmo:42046:1,2013-09-02T18:00:00Z,27.8903,-94.0367,2.0,108.779463,14.72383102,-99999.0,'11111222,11111222,99999999' 
TABS,ioos:station:wmo:42046:1,2013-09-02T18:30:00Z,27.8903,-94.0367,2.0,105.907703,14.63027683,-99999.0,'11111222,11111222,99999999' 
TABS,ioos:station:wmo:42046:1,2013-09-02T19:00:00Z,27.8903,-94.0367,2.0,116.8181346,15.18304976,-99999.0,'11111222,11111222,99999999' 
TABS,ioos:station:wmo:42046:1,2013-09-02T19:30:00Z,27.8903,-94.0367,2.0,133.238652,16.33481252,-99999.0,'11111222,11111222,99999999' 
TABS,ioos:station:wmo:42046:1,2013-09-02T20:00:00Z,27.8903,-94.0367,2.0,136.2064928,15.44663717,-99999.0,'11111222,11111222,99999999' 
TABS,ioos:station:wmo:42046:1,2013-09-02T20:30:00Z,27.8903,-94.0367,2.0,136.34483,17.77449015,-99999.0,'11111222,11111222,99999999' 
TABS,ioos:station:wmo:42046:1,2013-09-02T21:00:00Z,27.8903,-94.0367,2.0,136.0952316,15.90573796,-99999.0,'11111222,11111222,99999999' 
TABS,ioos:station:wmo:42046:1,2013-09-02T21:30:00Z,27.8903,-94.0367,2.0,145.7955432,38.31745947,-99999.0,'11111222,11111222,99999999' 
TABS,ioos:station:wmo:42046:1,2013-09-02T22:00:00Z,27.8903,-94.0367,2.0,165.0496515,33.45234371,-99999.0,'11111222,11111222,99999999' 
TABS,ioos:station:wmo:42046:1,2013-09-02T22:30:00Z,27.8903,-94.0367,2.0,171.5423645,31.68455775,-99999.0,'11111222,11111222,99999999' 
TABS,ioos:station:wmo:42046:1,2013-09-02T23:00:00Z,27.8903,-94.0367,2.0,188.3893211,30.29417931,-99999.0,'11111222,11111222,99999999' 
TABS,ioos:station:wmo:42046:1,2013-09-02T23:30:00Z,27.8903,-94.0367,2.0,190.4675961,27.35527189,-99999.0,'11111222,11111222,99999999' 
TABS,ioos:station:wmo:42046:1,2013-09-03T00:00:00Z,27.8903,-94.0367,2.0,208.388053,26.14392664,-99999.0,'11111222,11111222,99999999' 
TABS,ioos:station:wmo:42046:1,2013-09-03T00:30:00Z,27.8903,-94.0367,2.0,214.0427969,22.50738768,-99999.0,'11111222,11111222,99999999' 
TABS,ioos:station:wmo:42046:1,2013-09-03T01:00:00Z,27.8903,-94.0367,2.0,220.8115467,18.29929234,-99999.0,'11111222,11111222,99999999' 
TABS,ioos:station:wmo:42046:1,2013-09-03T01:30:00Z,27.8903,-94.0367,2.0,227.713699,21.95200446,-99999.0,'11111222,11111222,99999999' 
TABS,ioos:station:wmo:42046:1,2013-09-03T02:00:00Z,27.8903,-94.0367,2.0,248.518061,21.95510191,-99999.0,'11111222,11111222,99999999' 
TABS,ioos:station:wmo:42046:1,2013-09-03T02:30:00Z,27.8903,-94.0367,2.0,264.0755271,20.83124816,-99999.0,'11111222,11111222,99999999' 
TABS,ioos:station:wmo:42046:1,2013-09-03T03:00:00Z,27.8903,-94.0367,2.0,289.2653357,17.24570961,-99999.0,'11111222,11111222,99999999' 
TABS,ioos:station:wmo:42046:1,2013-09-03T03:30:00Z,27.8903,-94.0367,2.0,282.9928713,20.10468851,-99999.0,'11111222,11111222,99999999' 
TABS,ioos:station:wmo:42046:1,2013-09-03T04:00:00Z,27.8903,-94.0367,2.0,298.1515249,18.4188409,-99999.0,'11111222,11111222,99999999' 
TABS,ioos:station:wmo:42046:1,2013-09-03T04:30:00Z,27.8903,-94.0367,2.0,300.3473835,19.11976987,-99999.0,'11111222,11111222,99999999' 
TABS,ioos:station:wmo:42046:1,2013-09-03T05:00:00Z,27.8903,-94.0367,2.0,304.8851866,17.95677588,-99999.0,'11111222,11111222,99999999' 
TABS,ioos:station:wmo:42046:1,2013-09-03T05:30:00Z,27.8903,-94.0367,2.0,304.8269482,19.29626907,-99999.0,'11111222,11111222,99999999' 
TABS,ioos:station:wmo:42046:1,2013-09-03T06:00:00Z,27.8903,-94.0367,2.0,314.6075016,21.65918974,-99999.0,'11111222,11111222,99999999' 
TABS,ioos:station:wmo:42046:1,2013-09-03T06:30:00Z,27.8903,-94.0367,2.0,316.285018,13.87692329,-99999.0,'11111222,11111222,99999999' 
TABS,ioos:station:wmo:42046:1,2013-09-03T07:00:00Z,27.8903,-94.0367,2.0,324.2976048,14.53101511,-99999.0,'11111222,11111222,99999999' 
TABS,ioos:station:wmo:42046:1,2013-09-03T07:30:00Z,27.8903,-94.0367,2.0,345.4642175,13.06831665,-99999.0,'11111222,11111222,99999999' 
TABS,ioos:station:wmo:42046:1,2013-09-03T08:00:00Z,27.8903,-94.0367,2.0,354.3513596,10.15933561,-99999.0,'11111222,11111222,99999999' 
TABS,ioos:station:wmo:42046:1,2013-09-03T08:30:00Z,27.8903,-94.0367,2.0,6.523128558,10.38724217,-99999.0,'11111222,11111222,99999999' 
TABS,ioos:station:wmo:42046:1,2013-09-03T09:00:00Z,27.8903,-94.0367,2.0,13.12058293,9.559550199,-99999.0,'11133222,11111222,99999999' 
TABS,ioos:station:wmo:42046:1,2013-09-03T09:30:00Z,27.8903,-94.0367,2.0,33.40885776,11.29660568,-99999.0,'11111222,11111222,99999999' 
TABS,ioos:station:wmo:42046:1,2013-09-03T10:00:00Z,27.8903,-94.0367,2.0,29.6838171,9.288966573,-99999.0,'11133222,11111222,99999999' 
TABS,ioos:station:wmo:42046:1,2013-09-03T10:30:00Z,27.8903,-94.0367,2.0,36.8024563,8.480005896,-99999.0,'11133222,11111222,99999999' 
TABS,ioos:station:wmo:42046:1,2013-09-03T11:00:00Z,27.8903,-94.0367,2.0,26.16171572,8.255767681,-99999.0,'11133222,11111222,99999999' 
TABS,ioos:station:wmo:42046:1,2013-09-03T11:30:00Z,27.8903,-94.0367,2.0,28.81341084,10.14614212,-99999.0,'11111222,11111222,99999999' 
TABS,ioos:station:wmo:42046:1,2013-09-03T12:00:00Z,27.8903,-94.0367,2.0,37.37379206,11.82845721,-99999.0,'11111222,11111222,99999999' 
TABS,ioos:station:wmo:42046:1,2013-09-03T12:30:00Z,27.8903,-94.0367,2.0,37.96049392,11.77013169,-99999.0,'11111222,11111222,99999999' 
TABS,ioos:station:wmo:42046:1,2013-09-03T13:00:00Z,27.8903,-94.0367,2.0,53.26327926,12.05403252,-99999.0,'11111222,11111222,99999999' 
TABS,ioos:station:wmo:42046:1,2013-09-03T13:30:00Z,27.8903,-94.0367,2.0,31.60038113,10.3437179,-99999.0,'11111222,11111222,99999999' 
TABS,ioos:station:wmo:42046:1,2013-09-03T14:00:00Z,27.8903,-94.0367,2.0,56.56092117,12.66670044,-99999.0,'11111222,11111222,99999999' 
TABS,ioos:station:wmo:42046:1,2013-09-03T14:30:00Z,27.8903,-94.0367,2.0,57.03606928,12.03796079,-99999.0,'11111222,11111222,99999999' 
TABS,ioos:station:wmo:42046:1,2013-09-03T15:00:00Z,27.8903,-94.0367,2.0,40.74164209,11.52229578,-99999.0,'11111222,11111222,99999999' 
TABS,ioos:station:wmo:42046:1,2013-09-03T15:30:00Z,27.8903,-94.0367,2.0,64.61703726,12.57384985,-99999.0,'11111222,11111222,99999999' 
TABS,ioos:station:wmo:42046:1,2013-09-03T16:00:00Z,27.8903,-94.0367,2.0,46.97950683,12.48788613,-99999.0,'11111222,11111222,99999999' 
TABS,ioos:station:wmo:42046:1,2013-09-03T16:30:00Z,27.8903,-94.0367,2.0,60.66654998,14.16637215,-99999.0,'11111222,11111222,99999999' 
TABS,ioos:station:wmo:42046:1,2013-09-03T17:00:00Z,27.8903,-94.0367,2.0,125.9293381,21.93295466,-99999.0,'11111222,11111222,99999999' 
TABS,ioos:station:wmo:42046:1,2013-09-03T17:30:00Z,27.8903,-94.0367,2.0,135.4400381,26.69406863,-99999.0,'11111222,11111222,99999999' 
TABS,ioos:station:wmo:42046:1,2013-09-03T18:00:00Z,27.8903,-94.0367,2.0,147.9944812,24.81137038,-99999.0,'11111222,11111222,99999999' 
TABS,ioos:station:wmo:42046:1,2013-09-03T18:30:00Z,27.8903,-94.0367,2.0,154.0185936,25.01842721,-99999.0,'11111222,11111222,99999999' 
TABS,ioos:station:wmo:42046:1,2013-09-03T19:00:00Z,27.8903,-94.0367,2.0,164.2065618,25.86645898,-99999.0,'11111222,11111222,99999999' 
TABS,ioos:station:wmo:42046:1,2013-09-03T19:30:00Z,27.8903,-94.0367,2.0,162.6659993,23.69616003,-99999.0,'11111222,11111222,99999999' 
TABS,ioos:station:wmo:42046:1,2013-09-03T20:00:00Z,27.8903,-94.0367,2.0,171.9814903,26.09511832,-99999.0,'11111222,11111222,99999999' 
TABS,ioos:station:wmo:42046:1,2013-09-03T20:30:00Z,27.8903,-94.0367,2.0,170.0829769,25.49086503,-99999.0,'11111222,11111222,99999999' 
TABS,ioos:station:wmo:42046:1,2013-09-03T21:00:00Z,27.8903,-94.0367,2.0,176.9526116,22.76218355,-99999.0,'11111222,11111222,99999999' 
TABS,ioos:station:wmo:42046:1,2013-09-03T21:30:00Z,27.8903,-94.0367,2.0,179.435465,19.2909357,-99999.0,'11111222,11111222,99999999' 
TABS,ioos:station:wmo:42046:1,2013-09-03T22:00:00Z,27.8903,-94.0367,2.0,189.9687914,20.44874568,-99999.0,'11111222,11111222,99999999' 
TABS,ioos:station:wmo:42046:1,2013-09-03T22:30:00Z,27.8903,-94.0367,2.0,198.0778861,16.75723426,-99999.0,'11111222,11111222,99999999' 
TABS,ioos:station:wmo:42046:1,2013-09-03T23:00:00Z,27.8903,-94.0367,2.0,212.7306553,16.0719165,-99999.0,'11111222,11111222,99999999' 
TABS,ioos:station:wmo:42046:1,2013-09-03T23:30:00Z,27.8903,-94.0367,2.0,212.0883817,16.77236417,-99999.0,'11111222,11111222,99999999' 
TABS,ioos:station:wmo:42046:1,2013-09-04T00:00:00Z,27.8903,-94.0367,2.0,209.6041711,15.18189711,-99999.0,'11111222,11111222,99999999' 
TABS,ioos:station:wmo:42046:1,2013-09-04T00:30:00Z,27.8903,-94.0367,2.0,227.6962965,14.27815464,-99999.0,'11111222,11111222,99999999' 
TABS,ioos:station:wmo:42046:1,2013-09-04T01:00:00Z,27.8903,-94.0367,2.0,228.9616936,9.108089811,-99999.0,'11133222,11111222,99999999' 
TABS,ioos:station:wmo:42046:1,2013-09-04T01:30:00Z,27.8903,-94.0367,2.0,244.7604297,11.21017395,-99999.0,'11111222,11111222,99999999' 
TABS,ioos:station:wmo:42046:1,2013-09-04T02:00:00Z,27.8903,-94.0367,2.0,248.8805747,8.57601889,-99999.0,'11133222,11111222,99999999' 
TABS,ioos:station:wmo:42046:1,2013-09-04T02:30:00Z,27.8903,-94.0367,2.0,273.6218972,5.54106488,-99999.0,'11133222,11111222,99999999' 
TABS,ioos:station:wmo:42046:1,2013-09-04T03:00:00Z,27.8903,-94.0367,2.0,297.9492198,9.814728728,-99999.0,'11133222,11111222,99999999' 
TABS,ioos:station:wmo:42046:1,2013-09-04T03:30:00Z,27.8903,-94.0367,2.0,306.4487895,10.60428687,-99999.0,'11111222,11111222,99999999' 
TABS,ioos:station:wmo:42046:1,2013-09-04T04:00:00Z,27.8903,-94.0367,2.0,329.6703388,11.78267372,-99999.0,'11111222,11111222,99999999' 
TABS,ioos:station:wmo:42046:1,2013-09-04T04:30:00Z,27.8903,-94.0367,2.0,325.421478,9.655718513,-99999.0,'11133222,11111222,99999999' 
TABS,ioos:station:wmo:42046:1,2013-09-04T05:00:00Z,27.8903,-94.0367,2.0,335.7203162,13.01084548,-99999.0,'11111222,11111222,99999999' 
TABS,ioos:station:wmo:42046:1,2013-09-04T05:30:00Z,27.8903,-94.0367,2.0,330.0466723,14.30005944,-99999.0,'11111222,11111222,99999999' 
TABS,ioos:station:wmo:42046:1,2013-09-04T06:00:00Z,27.8903,-94.0367,2.0,324.6414281,16.76182866,-99999.0,'11111222,11111222,99999999' 
TABS,ioos:station:wmo:42046:1,2013-09-04T06:30:00Z,27.8903,-94.0367,2.0,327.1610846,14.5680335,-99999.0,'11111222,11111222,99999999' 
TABS,ioos:station:wmo:42046:1,2013-09-04T07:00:00Z,27.8903,-94.0367,2.0,321.8374295,17.10635554,-99999.0,'11111222,11111222,99999999' 
TABS,ioos:station:wmo:42046:1,2013-09-04T07:30:00Z,27.8903,-94.0367,2.0,335.0815891,18.67887845,-99999.0,'11111222,11111222,99999999' 
TABS,ioos:station:wmo:42046:1,2013-09-04T08:00:00Z,27.8903,-94.0367,2.0,333.4230386,21.03245587,-99999.0,'11111222,11111222,99999999' 
TABS,ioos:station:wmo:42046:1,2013-09-04T08:30:00Z,27.8903,-94.0367,2.0,338.204271,19.63356819,-99999.0,'11111222,11111222,99999999' 
TABS,ioos:station:wmo:42046:1,2013-09-04T09:00:00Z,27.8903,-94.0367,2.0,341.8938522,19.85310555,-99999.0,'11111222,11111222,99999999' 
TABS,ioos:station:wmo:42046:1,2013-09-04T09:30:00Z,27.8903,-94.0367,2.0,353.0922387,21.28451315,-99999.0,'11111222,11111222,99999999' 
TABS,ioos:station:wmo:42046:1,2013-09-04T10:00:00Z,27.8903,-94.0367,2.0,359.8250619,26.17012228,-99999.0,'11111222,11144222,99999999' 
TABS,ioos:station:wmo:42046:1,2013-09-04T10:30:00Z,27.8903,-94.0367,2.0,2.227721684,20.32535855,-99999.0,'11111222,11111222,99999999' 
TABS,ioos:station:wmo:42046:1,2013-09-04T11:00:00Z,27.8903,-94.0367,2.0,6.374083072,24.41089306,-99999.0,'11111222,11111222,99999999' 
TABS,ioos:station:wmo:42046:1,2013-09-04T11:30:00Z,27.8903,-94.0367,2.0,8.982926493,17.67679835,-99999.0,'11111222,11111222,99999999' 
TABS,ioos:station:wmo:42046:1,2013-09-04T12:00:00Z,27.8903,-94.0367,2.0,18.67220025,22.92670931,-99999.0,'11111222,11111222,99999999' 
TABS,ioos:station:wmo:42046:1,2013-09-04T12:30:00Z,27.8903,-94.0367,2.0,23.48800932,21.32706262,-99999.0,'11111222,11111222,99999999' 
TABS,ioos:station:wmo:42046:1,2013-09-04T13:00:00Z,27.8903,-94.0367,2.0,21.51631968,18.64961394,-99999.0,'11111222,11111222,99999999' 
TABS,ioos:station:wmo:42046:1,2013-09-04T13:30:00Z,27.8903,-94.0367,2.0,21.7472706,19.59458088,-99999.0,'11111222,11111222,99999999' 
TABS,ioos:station:wmo:42046:1,2013-09-04T14:00:00Z,27.8903,-94.0367,2.0,21.46282296,20.41570229,-99999.0,'11111222,11111222,99999999' 
TABS,ioos:station:wmo:42046:1,2013-09-04T14:30:00Z,27.8903,-94.0367,2.0,30.20534491,22.54031943,-99999.0,'11111222,11111222,99999999' 
TABS,ioos:station:wmo:42046:1,2013-09-04T15:00:00Z,27.8903,-94.0367,2.0,30.90547093,21.86436599,-99999.0,'11111222,11111222,99999999' 
TABS,ioos:station:wmo:42046:1,2013-09-04T15:30:00Z,27.8903,-94.0367,2.0,34.88021281,20.96664255,-99999.0,'11111222,11111222,99999999' 
TABS,ioos:station:wmo:42046:1,2013-09-04T16:00:00Z,27.8903,-94.0367,2.0,39.08291459,20.09698734,-99999.0,'11111222,11111222,99999999' 